Location: Home
(42.5358°N, 72.7383°W)
Time: 09:05:39
(UTC-05:00)

deb Explorer IX - Pass Details

Date: 03 December 2021
Orbit: 544 x 1082 km, 38.8° (Epoch: 19 January)

Event Time Altitude Azimuth Distance (km) Brightness Sun altitude
Rises 10:31:23 0° 237° (WSW) 3,009 ? 23.3°
Reaches altitude 10° 10:34:02 10° 228° (SW) 2,015 ? 23.5°
Maximum altitude 10:38:11 34° 164° (SSE) 970 ? 23.7°
Drops below altitude 10° 10:41:59 10° 98° (E) 1,841 ? 23.9°
Sets 10:44:18 0° 89° (E) 2,710 ? 24.0°
